Wind_Speed
21 21 19 11 8 11 7 9 9 16 18 19 21 22 21 20 23 25 23 38 47 49 44 44 43 45 42 34 35 34 32 31 26 25 24 20 24 24 25 22 18 18 18
19 17 20 17 16 15 12 11 14 22 26 21 17 19 22 24 23 24 25 26 38 53 52 49 45 43 46 39 36 35 33 29 28 27 27 27 22 23 25 27 23 22 22
18 18 18 23 26 18 16 12 13 24 31 25 22 21 24 26 29 25 27 28 33 47 57 56 48 44 48 44 42 36 34 33 32 28 22 26 27 27 23 23 26 24 27
16 13 18 25 25 17 15 14 20 26 28 34 26 23 22 23 29 30 27 30 26 40 58 56 52 49 47 48 42 40 38 33 30 26 24 23 25 26 24 22 23 29 31
8 13 20 22 22 15 15 20 21 29 34 33 26 23 26 15 13 17 25 30 29 29 51 60 59 52 51 48 43 40 40 38 32 25 27 25 27 31 28 29 28 29 30
13 14 18 14 14 19 18 15 22 28 34 32 25 25 25 14 7 9 14 22 31 32 35 59 61 57 51 49 47 39 37 36 34 26 29 28 31 30 28 27 27 27 33
11 16 19 16 11 15 12 15 20 27 32 26 22 26 21 9 5 4 7 14 23 32 32 49 62 60 52 50 46 43 35 34 32 30 32 31 34 30 30 27 27 25 24
9 9 11 17 22 23 14 19 22 27 27 22 17 19 21 12 5 2 4 9 17 23 28 37 59 59 59 50 48 45 46 39 37 35 36 36 31 34 31 29 28 27 30
10 10 16 15 12 12 20 20 24 25 21 17 12 14 15 15 9 6 6 6 10 16 25 29 50 58 60 56 51 49 42 45 44 41 36 38 38 37 34 34 33 29 31
16 19 15 21 22 25 27 24 25 27 19 12 8 10 6 8 11 6 6 2 3 8 23 23 34 49 56 58 55 50 46 45 42 44 41 41 42 42 42 40 38 34 34
19 20 22 16 16 20 24 27 21 19 13 9 8 5 6 3 3 3 4 2 2 6 12 19 23 38 50 59 55 52 51 45 46 44 44 45 47 47 46 44 47 45 40
23 22 23 20 18 18 18 25 22 14 7 8 5 5 6 1 7 3 3 5 2 1 7 16 21 32 42 51 53 53 52 48 47 47 48 49 51 52 54 53 51 49 48
24 24 25 22 21 22 19 21 18 15 11 9 10 12 6 4 5 8 5 3 3 4 6 8 14 28 37 42 50 50 53 54 54 51 52 53 54 55 55 57 53 55 55
30 30 27 25 26 24 19 16 20 17 13 11 10 7 17 9 3 4 8 8 10 10 9 11 13 17 27 38 47 50 50 52 54 56 59 56 53 54 56 58 58 60 60
37 34 29 27 26 23 23 21 19 15 19 15 11 9 6 6 3 2 9 12 13 12 11 14 16 19 23 27 33 40 45 47 48 48 50 50 49 51 55 60 63 65 66
31 28 31 27 27 26 26 25 23 24 24 25 23 19 15 13 9 11 10 10 10 15 18 18 18 19 25 29 32 36 41 42 41 43 47 50 52 56 58 61 65 67 69
16 17 25 26 25 24 25 26 25 26 28 31 30 29 27 22 21 19 18 19 18 21 21 22 27 29 30 31 33 37 41 45 47 50 54 57 60 63 65 67 69 71 74
14 15 21 26 28 28 29 28 23 24 23 28 32 33 30 28 30 29 28 26 28 25 27 26 27 31 34 37 40 43 44 45 48 53 57 61 64 66 69 71 72 75 77
13 14 18 20 20 19 21 22 19 23 19 23 29 30 28 25 28 31 31 33 34 34 29 31 36 35 34 37 39 43 46 49 53 55 58 62 66 70 73 76 80 80 81
15 13 12 11 12 12 16 22 21 17 24 23 23 24 27 27 31 32 31 32 34 35 36 35 38 43 44 44 44 49 51 53 55 56 60 63 67 72 75 78 80 81 83
18 18 16 14 15 14 14 19 23 23 22 25 27 30 31 35 39 38 40 40 42 40 41 44 47 45 48 51 54 54 56 59 60 63 65 68 70 74 76 80 81 84 89
23 20 19 19 18 18 17 18 21 23 27 31 32 33 37 38 39 42 44 48 51 52 54 57 57 56 56 57 59 62 62 62 62 63 65 68 71 70 71 75 75 79 81
32 27 25 22 21 22 25 27 25 22 21 20 23 27 30 31 32 33 35 38 43 49 57 63 65 67 68 69 69 66 66 66 67 69 71 72 70 73 74 74 74 76 82
44 40 34 31 29 29 27 28 30 29 29 31 35 35 36 39 40 42 45 47 50 50 52 53 53 57 60 62 63 66 67 67 67 68 67 68 71 75 77 77 78 79 78
49 48 44 40 38 38 37 36 35 36 37 39 41 43 44 47 50 51 53 56 58 58 59 59 56 53 55 56 57 59 62 63 65 66 68 70 72 74 76 78 79 82 84
55 53 53 50 48 47 45 45 46 46 45 46 49 51 53 55 56 56 58 61 62 61 62 59 57 57 57 57 57 59 61 63 66 68 71 74 79 83 86 89 90 91 94
Wind_Direction
260 251 238 249 281 329 322 328 334 346 328 316 295 294 289 281 280 269 255 226 225 214 219 214 209 200 196 203 207 211 210 209 217 237 235 245 262 269 268 268 264 257 270
262 261 232 257 267 290 309 329 354 357 359 343 313 309 295 290 271 271 261 241 223 215 212 218 209 201 197 199 203 209 211 215 212 222 235 244 265 266 264 265 260 251 247
266 274 248 260 276 289 304 325 333 348 355 344 334 317 295 287 272 258 259 249 230 216 212 218 212 204 203 205 209 207 210 216 221 224 236 250 258 263 267 267 262 258 250
278 270 256 260 264 273 272 303 324 332 340 344 335 323 316 288 268 249 240 241 232 215 210 212 212 206 206 209 215 212 215 221 220 228 234 250 257 253 254 263 274 263 254
298 257 253 255 261 266 261 291 317 319 330 336 336 334 327 322 281 256 234 233 229 221 215 209 213 210 208 212 216 214 216 221 221 227 235 240 248 252 265 265 273 266 255
276 241 253 255 298 262 258 284 312 323 327 335 339 336 335 332 299 265 238 227 229 226 218 211 212 212 207 214 213 216 217 216 216 222 241 247 248 263 260 269 278 276 254
248 215 240 240 239 269 285 313 313 320 332 338 346 344 347 329 344 267 250 237 230 230 220 214 208 211 210 212 216 216 216 215 213 222 232 236 251 260 266 270 272 271 272
252 245 237 253 273 276 286 296 311 317 333 338 350 346 356 36 32 97 292 251 229 226 219 210 207 210 212 214 215 218 223 222 220 220 228 238 240 248 255 257 266 270 260
252 242 230 245 284 301 280 290 299 311 345 339 354 356 38 46 37 16 328 275 223 210 211 210 208 205 211 218 220 224 226 226 225 227 236 240 244 250 256 252 261 270 271
250 253 249 246 265 269 279 282 288 301 341 341 358 340 46 73 42 50 46 42 162 198 207 203 204 204 207 214 218 225 228 228 229 231 236 245 249 255 256 252 260 267 267
233 244 254 252 258 259 264 274 285 297 328 327 324 309 342 179 86 27 27 111 170 169 178 196 203 202 206 210 215 221 228 231 234 237 241 250 257 259 256 254 263 264 265
245 236 250 250 255 257 266 272 275 277 299 301 309 293 321 197 226 294 41 56 230 238 194 196 201 200 203 209 214 221 229 230 233 239 246 250 254 256 256 260 264 266 267
264 252 249 246 251 259 274 263 257 243 249 278 250 271 261 219 187 193 237 206 155 150 216 241 216 207 205 210 218 222 229 236 238 241 245 250 253 254 260 263 267 268 272
281 253 250 249 247 259 259 263 269 243 232 224 198 202 228 255 231 227 238 238 233 213 212 213 218 216 217 217 217 220 228 233 239 243 245 252 259 262 265 265 267 268 272
289 253 247 246 247 247 254 259 258 270 221 212 205 197 194 201 267 224 225 242 252 254 242 227 230 234 229 225 225 230 238 244 248 251 255 259 264 266 264 265 268 270 272
277 257 249 251 254 252 252 254 253 258 227 226 223 231 236 243 257 258 260 269 259 224 229 243 253 249 243 243 244 244 242 242 244 250 254 257 259 260 260 262 265 268 272
283 266 255 257 259 256 254 253 255 248 235 229 236 243 255 256 268 266 252 254 264 257 239 232 232 234 242 246 247 249 251 250 249 249 252 255 257 259 261 262 264 266 269
288 269 259 258 258 255 252 251 252 245 240 231 242 249 258 268 272 270 266 269 268 261 251 248 249 249 245 241 242 245 248 250 252 253 255 256 258 259 261 263 266 268 270
293 276 271 271 260 258 249 238 247 242 240 229 236 251 259 263 274 276 277 272 268 265 258 255 248 248 250 249 253 249 248 249 251 254 256 256 258 260 261 262 262 263 264
288 290 289 294 258 260 249 230 240 249 256 261 259 262 252 264 282 281 279 280 277 272 270 258 253 254 255 258 258 255 258 259 258 259 259 261 261 260 262 265 266 266 267
292 276 277 283 282 280 260 246 247 253 260 267 270 273 273 278 281 280 276 277 281 280 276 275 267 266 265 266 263 266 266 264 264 264 263 264 261 263 264 267 267 267 268
284 278 276 269 265 258 255 256 255 259 262 267 270 276 282 284 282 280 280 279 278 280 281 282 277 274 275 274 273 272 271 270 269 268 266 266 268 265 265 266 267 268 271
279 277 273 275 272 268 267 269 267 268 273 276 283 286 288 293 291 290 292 292 289 283 277 274 275 274 274 274 272 270 271 272 273 272 272 272 270 270 272 273 272 271 271
276 277 274 273 271 273 273 270 269 273 276 285 294 296 299 301 302 304 305 304 303 303 300 294 283 276 273 272 270 269 272 274 274 275 274 273 273 275 275 278 279 279 279
272 273 272 271 271 274 277 275 276 278 282 286 290 294 298 301 303 303 305 306 306 304 304 302 296 289 282 278 274 273 271 271 274 276 277 277 277 276 276 277 278 278 278
268 269 272 273 273 273 274 275 277 278 282 286 289 292 295 299 301 301 301 301 303 303 303 299 297 294 290 285 281 278 277 275 276 276 276 276 275 274 273 271 270 272 272
Height
10877 10879 10882 10882 10880 10877 10875 10873 10872 10869 10867 10864 10862 10860 10858 10860 10858 10859 10862 10867 10871 10878 10885 10891 10898 10905 10910 10915 10921 10927 10933 10938 10941 10945 10949 10952 10956 10957 10957 10958 10959 10960 10960
10876 10877 10881 10881 10880 10878 10876 10873 10870 10867 10863 10859 10856 10854 10852 10850 10851 10852 10855 10857 10861 10870 10878 10883 10892 10899 10907 10912 10918 10922 10928 10932 10935 10940 10945 10948 10952 10953 10953 10954 10956 10956 10957
10875 10876 10880 10881 10878 10877 10877 10873 10869 10864 10859 10855 10852 10848 10845 10843 10842 10843 10846 10848 10852 10859 10869 10877 10885 10894 10903 10908 10914 10920 10923 10926 10931 10936 10940 10944 10948 10949 10950 10949 10950 10951 10951
10872 10873 10873 10870 10870 10870 10868 10867 10865 10863 10860 10854 10848 10845 10841 10835 10830 10831 10836 10840 10844 10849 10858 10868 10878 10888 10896 10902 10908 10915 10920 10923 10927 10931 10935 10939 10943 10944 10944 10945 10945 10945 10947
10872 10866 10863 10863 10865 10868 10866 10863 10860 10859 10857 10851 10844 10838 10833 10826 10823 10824 10828 10832 10838 10842 10849 10859 10870 10881 10889 10897 10904 10911 10916 10919 10922 10926 10931 10935 10937 10938 10939 10939 10940 10940 10940
10866 10859 10857 10864 10867 10863 10862 10857 10858 10855 10854 10846 10838 10833 10827 10823 10822 10822 10824 10827 10832 10837 10843 10852 10863 10876 10885 10891 10899 10906 10911 10914 10917 10922 10926 10929 10930 10932 10933 10934 10934 10933 10933
10860 10856 10858 10864 10864 10861 10857 10853 10852 10852 10851 10843 10836 10830 10824 10821 10821 10821 10823 10826 10828 10833 10839 10846 10858 10869 10880 10888 10895 10901 10906 10910 10912 10918 10920 10925 10925 10926 10927 10928 10929 10928 10928
10860 10859 10856 10857 10856 10855 10853 10851 10849 10853 10851 10843 10836 10831 10826 10823 10822 10823 10824 10824 10826 10828 10832 10840 10853 10866 10878 10884 10889 10895 10900 10903 10908 10913 10915 10917 10918 10919 10921 10922 10922 10922 10921
10858 10860 10856 10853 10852 10852 10851 10849 10850 10854 10849 10843 10837 10833 10830 10827 10826 10825 10824 10822 10823 10825 10829 10836 10847 10859 10871 10880 10884 10888 10893 10898 10902 10906 10908 10909 10910 10912 10914 10915 10915 10914 10914
10852 10855 10859 10857 10855 10854 10852 10852 10852 10851 10846 10842 10837 10835 10833 10831 10828 10826 10824 10823 10823 10825 10829 10835 10843 10853 10862 10871 10875 10881 10887 10891 10895 10898 10900 10902 10903 10906 10906 10907 10907 10907 10906
10849 10849 10852 10855 10855 10853 10853 10851 10850 10847 10844 10841 10838 10835 10834 10833 10831 10829 10827 10826 10826 10827 10829 10833 10838 10846 10854 10861 10869 10875 10879 10884 10888 10891 10892 10894 10896 10897 10897 10897 10897 10897 10898
10844 10843 10844 10848 10849 10848 10847 10847 10845 10842 10840 10839 10838 10836 10834 10833 10832 10832 10829 10828 10829 10830 10832 10834 10837 10840 10846 10855 10862 10866 10871 10876 10880 10883 10884 10887 10888 10888 10888 10888 10887 10887 10887
10839 10837 10837 10841 10844 10843 10843 10841 10840 10838 10836 10836 10836 10836 10835 10833 10832 10831 10831 10831 10830 10831 10833 10834 10836 10839 10844 10850 10856 10861 10866 10869 10872 10874 10876 10877 10878 10878 10878 10877 10876 10875 10875
10833 10832 10830 10834 10837 10838 10837 10836 10835 10835 10834 10834 10833 10833 10834 10833 10833 10832 10831 10831 10831 10832 10833 10833 10835 10838 10842 10846 10851 10855 10858 10860 10862 10864 10866 10867 10867 10866 10866 10865 10864 10863 10863
10823 10823 10824 10826 10829 10830 10831 10831 10830 10831 10831 10832 10832 10831 10832 10832 10832 10831 10831 10831 10831 10831 10833 10833 10834 10836 10838 10841 10844 10846 10848 10850 10852 10853 10854 10855 10854 10854 10854 10853 10852 10850 10848
10813 10813 10816 10819 10821 10823 10824 10824 10825 10825 10827 10828 10829 10830 10829 10830 10830 10829 10830 10829 10828 10828 10830 10831 10832 10833 10834 10836 10837 10839 10840 10841 10842 10843 10844 10844 10843 10842 10841 10840 10837 10835 10834
10807 10809 10812 10814 10816 10816 10817 10818 10818 10819 10822 10823 10824 10824 10825 10826 10827 10826 10826 10825 10826 10825 10825 10826 10826 10827 10828 10830 10831 10831 10832 10833 10833 10833 10832 10832 10830 10829 10827 10824 10822 10819 10816
10809 10809 10810 10810 10810 10811 10811 10812 10813 10814 10816 10819 10820 10820 10821 10822 10820 10821 10820 10821 10820 10821 10820 10820 10821 10821 10821 10822 10822 10822 10822 10821 10821 10819 10819 10818 10816 10813 10810 10809 10807 10804 10800
10810 10809 10808 10807 10806 10806 10806 10807 10809 10810 10812 10813 10814 10814 10815 10815 10815 10813 10813 10813 10813 10813 10814 10814 10814 10813 10813 10813 10812 10811 10810 10809 10808 10807 10805 10803 10801 10798 10795 10791 10787 10785 10782
10810 10808 10806 10805 10804 10803 10802 10803 10804 10805 10806 10808 10808 10808 10809 10808 10807 10806 10805 10804 10803 10802 10803 10804 10804 10803 10802 10801 10799 10798 10796 10796 10795 10793 10790 10786 10783 10780 10776 10772 10768 10765 10761
10807 10805 10804 10802 10802 10801 10800 10801 10801 10802 10802 10802 10801 10800 10801 10801 10799 10798 10797 10797 10794 10793 10792 10791 10790 10790 10788 10785 10784 10782 10780 10778 10777 10773 10769 10765 10762 10759 10756 10751 10746 10743 10740
10803 10802 10801 10800 10798 10797 10797 10797 10797 10796 10797 10796 10795 10793 10792 10792 10791 10789 10788 10785 10783 10781 10778 10776 10774 10772 10769 10767 10766 10763 10760 10758 10755 10750 10747 10744 10742 10738 10735 10730 10726 10721 10717
10797 10797 10796 10795 10794 10793 10792 10792 10791 10791 10790 10789 10788 10786 10784 10782 10780 10778 10776 10773 10770 10767 10764 10761 10757 10754 10751 10747 10745 10743 10740 10736 10735 10728 10724 10722 10719 10715 10710 10707 10703 10697 10694
10786 10788 10789 10788 10786 10785 10785 10784 10783 10783 10782 10781 10778 10776 10774 10771 10768 10765 10762 10758 10754 10750 10746 10741 10737 10734 10732 10728 10725 10723 10720 10716 10712 10707 10702 10700 10696 10691 10686 10682 10677 10671 10667
10776 10776 10777 10777 10776 10775 10775 10775 10773 10772 10770 10769 10767 10764 10761 10758 10754 10751 10747 10742 10737 10732 10727 10722 10717 10714 10711 10708 10706 10703 10700 10697 10693 10688 10682 10677 10671 10669 10663 10658 10653 10645 10640
10763 10764 10764 10764 10764 10762 10763 10761 10760 10758 10757 10755 10753 10751 10748 10744 10740 10737 10733 10727 10722 10717 10711 10705 10701 10696 10692 10688 10685 10682 10679 10676 10672 10667 10662 10657 10651 10646 10640 10635 10629 10623 10616